GW5236 Weather Reports


Display with metric or nautical units.
time (UTC)temp
F
wind
direction
speed
MPH
gust
MPH
rain 1hr
in
rain 24hr
in
rain mn
in
humidity
%
barometer
mb
20260507033506 39 248 0.0 0.0 0.00 0.32 0.31 91 1014.1
20260507033021 39 248 0.0 0.0 0.00 0.32 0.31 91 1014.2
20260507032509 39 248 0.0 0.0 0.00 0.33 0.31 91 1014.2
20260507032016 39 248 0.0 0.0 0.00 0.33 0.31 90 1014.3
20260507031523 39 248 0.0 0.0 0.00 0.33 0.31 90 1014.3
20260507031009 40 248 0.0 0.0 0.00 0.34 0.31 90 1014.4
20260507030024 40 248 0.0 0.0 0.00 0.36 0.31 89 1014.4
20260507025509 40 248 0.0 0.0 0.00 0.37 0.31 88 1014.5
20260507024527 40 248 0.0 0.0 0.00 0.40 0.31 87 1014.5
20260507023511 41 248 0.0 0.0 0.00 0.43 0.31 86 1014.5
20260507023028 41 248 0.0 0.0 0.00 0.44 0.31 85 1014.5
20260507022506 42 248 0.0 0.0 0.00 0.45 0.31 84 1014.4
20260507021521 42 248 0.0 0.0 0.00 0.46 0.31 82 1014.3
20260507021005 43 248 0.0 0.0 0.00 0.46 0.31 83 1014.3
20260507020506 43 248 0.0 0.0 0.00 0.47 0.31 82 1014.3
20260507015504 44 248 0.0 0.0 0.00 0.49 0.31 78 1014.2
20260507015006 44 248 0.0 0.0 0.00 0.50 0.31 77 1014.2
20260507014526 45 248 0.0 0.0 0.00 0.51 0.31 76 1014.1
20260507014005 45 248 0.0 0.0 0.00 0.52 0.31 75 1014.2
20260507013506 46 248 0.0 0.0 0.00 0.52 0.31 73 1014.2
20260507013015 47 248 0.0 0.0 0.00 0.54 0.31 71 1014.1
20260507012506 47 248 0.0 0.0 0.00 0.55 0.31 70 1014.1
20260507012008 48 248 0.0 0.0 0.00 0.56 0.31 70 1014.1
20260507011516 49 248 0.0 0.0 0.00 0.58 0.31 68 1014.0
20260507011010 49 248 0.0 0.0 0.00 0.60 0.31 66 1014.0
20260507010020 50 248 0.0 2.0 0.00 0.63 0.31 60 1013.9
20260507005505 51 248 0.0 2.0 0.00 0.64 0.31 60 1013.8
20260507005008 51 248 0.0 2.0 0.00 0.65 0.31 59 1013.6
20260507004520 51 248 0.0 2.0 0.00 0.66 0.31 58 1013.6
20260507004010 51 261 1.0 2.0 0.00 0.67 0.31 57 1013.5
20260507003507 51 250 0.0 3.0 0.00 0.68 0.31 57 1013.4
20260507003021 51 252 0.0 3.0 0.00 0.69 0.31 57 1013.4
20260507002503 52 259 1.0 3.0 0.00 0.70 0.31 56 1013.3
20260507002007 52 263 0.0 7.0 0.00 0.71 0.31 56 1013.3
20260507001521 52 240 0.0 7.0 0.00 0.72 0.31 56 1013.3
20260507001012 52 269 1.0 7.0 0.00 0.73 0.31 55 1013.2
20260507000026 52 298 3.0 4.0 0.00 0.76 0.31 55 1013.2
20260506235505 52 234 0.0 2.0 0.00 0.77 0.31 58 1013.3
20260506234521 52 261 1.0 3.0 0.00 0.78 0.31 55 1013.2
20260506234006 52 276 0.0 2.0 0.00 0.78 0.31 57 1013.1
20260506233505 52 298 1.0 3.0 0.00 0.79 0.31 56 1013.1
20260506233021 53 264 0.0 3.0 0.00 0.80 0.31 55 1013.1
20260506232505 53 271 1.0 5.0 0.00 0.80 0.31 55 1013.1
20260506232006 53 255 2.0 6.0 0.00 0.81 0.31 53 1013.3
20260506231514 53 284 3.0 8.0 0.00 0.83 0.31 52 1013.3
20260506231008 53 244 2.0 9.0 0.00 0.83 0.31 51 1013.4
20260506230507 53 294 3.0 9.0 0.00 0.84 0.31 52 1013.5
20260506230022 53 267 2.0 8.0 0.00 0.85 0.31 54 1013.6
20260506225510 53 288 3.0 8.0 0.00 0.85 0.31 52 1013.6
20260506225008 53 296 2.0 7.0 0.00 0.86 0.31 54 1013.6
20260506224521 53 281 3.0 9.0 0.00 0.86 0.31 55 1013.7
20260506224008 53 253 3.0 9.0 0.00 0.87 0.31 53 1013.6
20260506223508 54 258 2.0 5.0 0.00 0.87 0.31 53 1013.6
20260506223021 54 209 2.0 5.0 0.00 0.87 0.31 52 1013.5
20260506222505 54 131 1.0 7.0 0.00 0.87 0.31 54 1013.6
20260506222006 53 260 3.0 7.0 0.00 0.88 0.31 51 1013.6
20260506221522 54 259 2.0 6.0 0.00 0.88 0.31 53 1013.6
20260506221014 54 259 3.0 6.0 0.00 0.89 0.31 53 1013.4
20260506220508 54 244 1.0 6.0 0.00 0.90 0.31 53 1013.3
20260506220021 54 263 1.0 6.0 0.00 0.90 0.31 50 1013.4
20260506215511 54 261 2.0 6.0 0.00 0.90 0.31 51 1013.3
20260506215008 54 277 1.0 6.0 0.00 0.90 0.31 51 1013.2
20260506214520 54 238 3.0 9.0 0.00 0.91 0.31 49 1013.2
20260506213511 54 309 3.0 7.0 0.00 0.91 0.31 49 1013.1
20260506212507 54 265 4.0 7.0 0.00 0.92 0.31 53 1012.9
20260506212009 54 238 2.0 7.0 0.00 0.92 0.31 55 1012.9
20260506211523 54 271 1.0 7.0 0.00 0.92 0.31 56 1012.8
20260506211006 54 321 2.0 7.0 0.00 0.93 0.31 55 1012.9
20260506210508 54 290 3.0 7.0 0.00 0.94 0.31 55 1012.9
20260506210025 54 276 2.0 8.0 0.00 0.96 0.31 54 1013.0
20260506205511 54 294 1.0 12.0 0.00 0.98 0.31 55 1013.0
20260506205008 54 284 3.0 12.0 0.00 1.01 0.31 53 1013.0
20260506204524 54 245 3.0 9.0 0.00 1.04 0.31 55 1013.0
20260506204006 54 253 1.0 10.0 0.00 1.09 0.31 52 1012.9
20260506203508 54 271 3.0 10.0 0.00 1.09 0.31 52 1012.8
20260506203022 54 287 2.0 7.0 0.00 1.09 0.31 52 1012.8
20260506202509 55 309 2.0 9.0 0.00 1.11 0.31 54 1012.7
20260506201522 55 238 3.0 4.0 0.00 1.11 0.31 54 1012.7
20260506201008 55 345 2.0 8.0 0.00 1.11 0.31 56 1012.7
20260506200508 54 307 3.0 8.0 0.00 1.11 0.31 54 1012.7
20260506200012 54 265 1.0 7.0 0.00 1.11 0.31 53 1012.7
20260506195506 54 291 2.0 7.0 0.00 1.11 0.31 54 1012.6
20260506195007 54 278 2.0 7.0 0.00 1.11 0.31 53 1012.7
20260506194519 54 274 2.0 7.0 0.00 1.11 0.31 55 1012.7
20260506194007 54 304 2.0 6.0 0.00 1.11 0.31 56 1012.8
20260506193508 54 305 2.0 6.0 0.00 1.11 0.31 56 1012.8
20260506193020 54 281 1.0 5.0 0.00 1.11 0.31 58 1012.9
20260506192514 54 30 2.0 6.0 0.00 1.11 0.31 55 1012.9
20260506192010 54 275 0.0 6.0 0.00 1.11 0.31 60 1012.9
20260506191525 54 24 1.0 6.0 0.00 1.11 0.31 58 1012.8
20260506190025 55 32 1.0 10.0 0.00 1.11 0.31 55 1012.8
20260506185505 55 323 2.0 10.0 0.00 1.11 0.31 56 1012.5
20260506185005 55 307 1.0 8.0 0.00 1.11 0.31 56 1012.4
20260506184515 55 5 2.0 10.0 0.00 1.11 0.31 55 1012.5
20260506184008 55 264 5.0 11.0 0.00 1.11 0.31 53 1012.5
20260506183508 56 247 6.0 11.0 0.00 1.11 0.31 53 1012.6
20260506183018 56 290 2.0 9.0 0.00 1.11 0.31 56 1012.7
20260506182508 56 185 2.0 7.0 0.00 1.11 0.31 55 1012.7
20260506182010 56 283 2.0 7.0 0.00 1.11 0.31 57 1012.5
20260506181522 56 315 2.0 9.0 0.00 1.11 0.31 54 1012.8
20260506180515 56 5 4.0 11.0 0.00 1.11 0.31 51 1012.9
20260506180026 57 254 3.0 11.0 0.00 1.11 0.31 56 1012.8
20260506174525 57 352 3.0 12.0 0.00 1.11 0.31 58 1012.8
20260506174006 56 23 3.0 9.0 0.00 1.11 0.31 53 1012.8
20260506173507 57 283 4.0 9.0 0.00 1.11 0.31 55 1012.7
20260506173020 57 321 1.0 9.0 0.00 1.11 0.31 51 1012.6
20260506172507 57 315 2.0 9.0 0.00 1.11 0.31 56 1012.7
20260506172003 57 290 4.0 9.0 0.00 1.11 0.31 55 1012.7
20260506171509 56 5 2.0 10.0 0.00 1.11 0.31 58 1012.7
20260506171003 56 263 5.0 10.0 0.00 1.11 0.31 53 1012.6
20260506170506 56 205 2.0 10.0 0.00 1.11 0.31 57 1012.6
20260506170006 56 352 4.0 9.0 0.00 1.11 0.31 56 1012.5
20260506165504 56 259 5.0 9.0 0.00 1.11 0.31 58 1012.5
20260506165004 56 44 2.0 8.0 0.00 1.11 0.31 61 1012.7
20260506164514 56 342 3.0 8.0 0.00 1.11 0.31 55 1012.7
20260506164008 56 301 2.0 9.0 0.00 1.11 0.31 62 1012.8
20260506163506 56 352 2.0 9.0 0.00 1.11 0.31 62 1012.8
20260506163030 55 350 3.0 8.0 0.00 1.11 0.31 59 1012.7
20260506162504 55 267 3.0 9.0 0.00 1.11 0.31 59 1012.5
20260506162009 56 300 4.0 9.0 0.00 1.11 0.31 55 1012.6
20260506161504 55 242 2.0 6.0 0.00 1.11 0.31 64 1012.6
20260506161003 55 263 2.0 11.0 0.00 1.11 0.31 65 1012.7
20260506160506 55 53 4.0 11.0 0.00 1.11 0.31 60 1012.7
20260506160015 55 253 3.0 8.0 0.00 1.11 0.31 65 1012.6
20260506155504 54 287 3.0 6.0 0.00 1.11 0.31 66 1012.5
20260506155005 54 300 3.0 5.0 0.00 1.11 0.31 64 1012.4
20260506154510 53 360 1.0 5.0 0.00 1.11 0.31 68 1012.4
20260506154008 53 229 2.0 8.0 0.00 1.11 0.31 66 1012.4
20260506153506 53 273 3.0 8.0 0.00 1.11 0.31 65 1012.3
20260506153016 53 196 2.0 7.0 0.00 1.11 0.31 68 1012.1
20260506152506 52 271 3.0 8.0 0.00 1.11 0.31 66 1011.9
20260506152006 52 303 3.0 8.0 0.00 1.11 0.31 68 1011.9
20260506151524 52 40 3.0 8.0 0.00 1.11 0.31 67 1012.0
20260506151005 52 271 4.0 9.0 0.00 1.11 0.31 69 1011.9
20260506150508 52 14 3.0 9.0 0.00 1.11 0.31 69 1011.8
20260506150005 51 298 2.0 7.0 0.00 1.11 0.31 71 1011.8
20260506145508 51 266 3.0 6.0 0.00 1.11 0.31 71 1011.9
20260506145005 51 255 4.0 6.0 0.00 1.11 0.31 68 1012.0
20260506144509 51 327 2.0 6.0 0.00 1.11 0.31 75 1011.8
20260506144004 50 329 2.0 6.0 0.00 1.11 0.31 73 1011.8
20260506143506 50 314 1.0 6.0 0.00 1.11 0.31 72 1011.7
20260506143012 49 280 1.0 6.0 0.00 1.11 0.31 73 1011.8
20260506142508 49 309 3.0 6.0 0.00 1.11 0.31 72 1011.7
20260506142006 49 321 1.0 8.0 0.00 1.11 0.31 75 1011.6
20260506141518 49 259 1.0 8.0 0.00 1.11 0.31 76 1011.6
20260506141008 49 248 4.0 7.0 0.00 1.11 0.31 75 1011.5
20260506140510 49 277 0.0 7.0 0.00 1.11 0.31 76 1011.3
20260506140020 48 320 1.0 8.0 0.00 1.11 0.31 76 1011.1
20260506135510 48 286 1.0 8.0 0.00 1.11 0.31 78 1011.3
20260506135011 48 265 2.0 5.0 0.00 1.11 0.31 79 1011.4
20260506134524 47 324 2.0 5.0 0.00 1.11 0.31 82 1011.1
20260506134016 47 288 1.0 6.0 0.00 1.11 0.31 82 1011.0
20260506133508 47 263 1.0 6.0 0.00 1.11 0.31 83 1011.0
20260506133026 46 276 1.0 7.0 0.00 1.11 0.31 84 1011.0
20260506132511 46 269 2.0 7.0 0.00 1.11 0.31 84 1011.0
20260506132005 46 286 2.0 6.0 0.00 1.11 0.31 84 1011.0
20260506131515 46 281 2.0 6.0 0.00 1.11 0.31 84 1011.2
20260506131007 45 302 1.0 4.0 0.00 1.11 0.31 86 1011.2
20260506130513 45 307 1.0 4.0 0.00 1.11 0.31 87 1010.9
20260506130020 45 304 1.0 4.0 0.00 1.11 0.31 87 1011.1
20260506125507 45 294 1.0 5.0 0.00 1.11 0.31 88 1010.9
20260506125008 45 257 2.0 5.0 0.00 1.11 0.31 87 1011.0
20260506124521 44 255 1.0 4.0 0.00 1.11 0.31 88 1010.9
20260506124010 44 298 1.0 4.0 0.00 1.11 0.31 89 1010.9
20260506123509 44 261 1.0 4.0 0.00 1.11 0.31 89 1010.8
20260506123027 44 301 2.0 3.0 0.00 1.11 0.31 89 1010.5
20260506122511 44 291 1.0 4.0 0.00 1.11 0.31 89 1010.5
20260506122009 44 352 1.0 4.0 0.00 1.11 0.31 89 1010.3
20260506121530 44 266 0.0 4.0 0.00 1.11 0.31 90 1010.4
20260506121010 44 332 2.0 6.0 0.00 1.11 0.31 89 1010.2
20260506120507 44 309 1.0 6.0 0.00 1.11 0.31 89 1010.1
20260506120018 44 329 1.0 4.0 0.00 1.11 0.31 90 1010.2
20260506115509 44 24 0.0 2.0 0.00 1.11 0.31 91 1010.0
20260506115008 44 280 0.0 3.0 0.00 1.11 0.31 91 1010.0
20260506114522 44 289 1.0 3.0 0.00 1.11 0.31 91 1010.0
20260506114008 44 330 0.0 3.0 0.00 1.11 0.31 91 1010.0
20260506113510 43 336 0.0 5.0 0.00 1.11 0.31 92 1009.7
20260506113023 43 11 1.0 5.0 0.00 1.11 0.31 92 1009.4
20260506112514 43 37 1.0 5.0 0.00 1.11 0.31 92 1009.2
20260506112004 43 302 2.0 4.0 0.00 1.11 0.31 92 1009.3
20260506111514 43 276 1.0 4.0 0.00 1.11 0.31 92 1009.1
20260506111004 43 360 2.0 6.0 0.00 1.11 0.31 92 1008.9
20260506110507 43 352 3.0 5.0 0.00 1.11 0.31 93 1008.9
20260506110016 44 36 2.0 5.0 0.00 1.11 0.31 93 1009.0
20260506105508 44 308 1.0 4.0 0.00 1.11 0.31 93 1008.7
20260506105007 44 243 2.0 4.0 0.00 1.11 0.31 94 1009.1
20260506104522 44 11 1.0 7.0 0.00 1.11 0.31 94 1009.2
20260506104000 44 279 3.0 7.0 0.00 1.11 0.31 94 1009.4
20260506103504 44 265 1.0 5.0 0.00 1.11 0.31 94 1009.1
20260506103008 44 352 2.0 5.0 0.00 1.11 0.31 94 1008.7
20260506102504 44 285 1.0 5.0 0.00 1.11 0.31 94 1008.5
20260506102004 44 350 2.0 7.0 0.00 1.11 0.31 95 1008.5
20260506101511 44 331 2.0 7.0 0.00 1.11 0.31 95 1008.7
20260506101003 44 262 3.0 6.0 0.00 1.11 0.31 95 1008.9
20260506100504 44 330 2.0 5.0 0.00 1.11 0.31 95 1009.0
20260506095505 44 346 2.0 5.0 0.00 1.11 0.31 95 1008.3
20260506095009 44 302 2.0 6.0 0.00 1.11 0.31 95 1008.3
20260506093029 44 327 1.0 4.0 0.01 1.11 0.31 95 1007.6
20260506092501 44 309 1.0 4.0 0.02 1.11 0.31 95 1007.8
20260506092004 44 352 2.0 6.0 0.03 1.11 0.31 95 1007.9
20260506091509 44 341 1.0 6.0 0.04 1.11 0.31 95 1007.6
20260506091006 44 34 2.0 5.0 0.05 1.11 0.31 95 1007.4
20260506090504 44 360 2.0 7.0 0.06 1.11 0.31 95 1007.9
20260506090016 44 352 1.0 7.0 0.07 1.11 0.31 95 1007.8
20260506085503 44 349 1.0 5.0 0.09 1.11 0.31 95 1007.8
20260506085004 44 286 1.0 5.0 0.10 1.11 0.31 95 1007.8
20260506084517 44 311 2.0 5.0 0.10 1.11 0.31 95 1007.8
20260506084007 44 336 2.0 5.0 0.09 1.10 0.30 95 1008.0
20260506083506 44 320 1.0 5.0 0.09 1.10 0.30 95 1008.1
20260506083022 44 302 3.0 5.0 0.09 1.10 0.30 95 1008.1
20260506082508 44 5 2.0 6.0 0.08 1.09 0.29 95 1008.2
20260506082012 44 300 3.0 6.0 0.07 1.08 0.28 95 1008.2
20260506081524 44 33 2.0 6.0 0.06 1.07 0.27 95 1008.2
20260506081004 44 341 1.0 6.0 0.05 1.05 0.26 95 1008.2
20260506080504 44 338 3.0 7.0 0.04 1.04 0.25 94 1008.1
20260506073508 45 5 2.0 9.0 0.03 1.01 0.21 95 1007.6
20260506073022 45 30 3.0 8.0 0.04 1.01 0.21 95 1007.7
20260506072008 45 334 2.0 8.0 0.05 1.01 0.21 95 1007.5
20260506071530 45 333 2.0 12.0 0.05 1.01 0.21 95 1007.6
20260506071012 45 265 3.0 12.0 0.06 1.01 0.21 95 1007.6
20260506070509 45 328 2.0 5.0 0.07 1.01 0.21 95 1007.9
20260506062512 45 315 2.0 9.0 0.10 0.97 0.17 95 1007.9
20260506062009 45 298 2.0 9.0 0.09 0.96 0.16 95 1007.7
20260506061531 45 280 3.0 6.0 0.09 0.96 0.16 95 1007.7
20260506061010 45 335 1.0 4.0 0.08 0.95 0.15 95 1007.7
20260506051001 45 17 2.0 9.0 0.07 0.87 0.07 94 1007.8
20260506050501 45 19 2.0 8.0 0.07 0.87 0.07 94 1007.9
20260506045004 46 265 2.0 8.0 0.06 0.86 0.06 94 1008.2
20260506044511 46 317 2.0 8.0 0.05 0.85 0.05 94 1008.2
20260506044005 46 321 1.0 8.0 0.05 0.84 0.04 94 1008.3
20260506043505 46 360 1.0 8.0 0.03 0.82 0.02 94 1008.3
20260506043015 46 312 1.0 6.0 0.02 0.81 0.01 94 1008.2
20260506042507 46 16 2.0 8.0 0.02 0.80 0.00 94 1008.1
20260506042007 46 284 1.0 8.0 0.02 0.80 0.00 94 1008.1
20260506041505 46 321 2.0 6.0 0.02 0.80 0.00 94 1007.9
20260506041001 46 346 1.0 6.0 0.03 0.80 0.00 94 1007.9
20260506040500 46 347 1.0 5.0 0.04 0.80 0.00 94 1007.9
20260506040014 47 20 2.0 6.0 0.05 0.80 0.00 94 1007.9
20260506035504 47 40 2.0 6.0 0.06 0.80 0.80 95 1007.8
20260506034506 47 301 3.0 9.0 0.09 0.80 0.80 94 1008.0
20260506034005 47 318 3.0 9.0 0.09 0.79 0.79 94 1008.0